CAPE
1222 1142 989 845 747 579 406 300 298 382 442 225 377 297 187 146 138 123 114 155 153 138 108 87 73 55 36 21 19 50 18 1 3 2 1 0 5 0 0 0 0 0 0
775 548 464 564 761 552 374 320 325 311 231 146 245 220 66 44 109 111 100 124 116 128 98 86 25 1 0 0 1 14 1 0 0 0 0 0 0 56 97 57 0 0 0
394 327 276 150 219 255 241 221 94 119 78 61 43 18 27 13 14 40 101 165 125 97 140 84 50 16 43 8 11 22 21 2 0 0 0 0 0 1 48 10 4 1 0
496 414 256 50 44 169 193 147 71 5 1 0 0 5 6 10 26 99 149 173 151 154 149 55 8 1 0 0 0 0 41 31 1 0 0 0 0 0 0 0 0 0 0
632 564 290 71 38 380 250 93 0 0 0 1 0 2 6 31 52 38 67 77 68 78 42 54 3 0 0 0 0 0 6 86 73 42 3 1 1 0 0 0 0 0 0
775 741 315 81 67 294 257 3 1 0 0 0 13 6 17 42 48 55 36 22 53 40 33 31 1 0 0 0 0 0 0 0 2 3 7 16 0 0 0 0 0 0 0
872 728 381 136 56 331 195 47 9 3 1 3 6 5 34 55 2 7 16 19 0 0 8 3 5 35 10 0 0 0 0 0 0 0 0 0 0 1 3 0 0 16 25
956 768 425 186 68 222 200 145 120 53 3 0 1 2 5 0 1 17 5 6 0 0 1 4 8 22 25 2 1 3 2 0 0 0 9 17 44 82 42 50 59 72 72
982 821 507 257 102 262 333 387 305 163 66 3 1 8 22 33 8 25 1 2 2 0 0 3 8 21 16 1 1 0 0 0 0 0 0 0 0 6 43 37 35 30 32
1092 920 604 273 66 80 239 356 329 272 178 59 25 9 52 46 3 0 0 4 5 1 0 23 13 34 6 0 0 0 0 0 0 0 0 0 0 0 0 3 53 52 45
1303 979 749 405 167 192 270 151 113 154 152 57 83 23 42 50 13 0 0 6 1 0 0 19 9 4 0 1 1 0 0 2 3 0 0 0 0 0 0 0 0 0 0
1309 1102 890 619 391 273 206 136 68 85 71 32 39 51 49 49 43 0 0 0 10 4 21 42 32 0 0 0 0 0 0 0 0 0 0 1 2 1 0 0 0 0 0
1373 1224 1011 830 558 327 233 166 72 80 55 51 46 58 24 16 2 0 0 0 0 14 20 36 21 0 0 0 0 0 0 0 0 6 10 10 8 3 0 0 0 0 0
1618 1489 1189 950 552 388 266 178 66 66 90 81 49 16 23 12 9 1 7 0 0 1 0 1 0 0 0 0 0 0 0 0 7 14 11 9 9 27 30 20 0 0 0
413 1520 1235 929 379 373 271 194 155 154 177 47 70 14 11 10 5 5 4 7 7 8 1 0 0 0 0 0 0 0 0 0 0 5 10 14 26 38 37 33 20 0 2
1431 416 1 200 471 435 323 248 61 42 18 10 12 17 13 10 8 0 0 1 0 0 0 0 0 0 0 0 0 0 0 0 0 0 6 9 17 23 40 62 58 22 0
1063 423 21 45 405 473 332 271 192 33 0 0 0 0 0 8 0 0 0 0 0 0 0 0 0 12 8 9 6 0 0 0 0 0 0 0 10 14 31 52 77 44 16
947 146 197 253 269 454 424 240 144 128 63 23 0 0 0 0 0 0 0 0 0 0 11 23 30 32 30 29 29 28 37 37 23 3 0 0 0 0 16 25 32 89 134
555 390 320 170 247 327 494 300 175 142 96 24 15 0 0 0 0 0 0 0 3 6 7 8 17 32 40 44 47 44 42 50 57 80 73 34 9 0 0 0 0 9 48
570 475 289 251 204 127 173 242 235 173 133 41 1 0 0 0 0 0 0 0 0 1 13 14 16 26 39 49 57 64 74 67 44 43 51 49 111 124 49 0 0 0 0
279 411 158 27 58 31 50 48 151 232 118 17 0 0 0 0 0 0 0 0 0 0 6 13 19 33 35 55 80 66 54 70 87 95 87 84 71 83 158 201 36 1 33
264 219 97 0 6 35 35 45 119 230 234 82 15 1 0 0 15 46 86 69 49 34 63 83 90 95 92 60 36 52 74 54 62 133 146 151 149 131 60 65 101 171 220
561 411 312 111 106 90 35 3 0 16 47 125 155 73 11 5 26 37 61 113 118 113 102 76 83 116 134 147 89 55 52 45 108 121 102 176 204 192 177 144 130 117 80
180 368 328 363 347 71 22 6 2 12 37 62 90 128 52 63 58 97 145 191 218 243 233 89 56 30 59 20 14 16 13 32 57 78 113 128 167 164 124 156 167 181 178
191 220 282 207 137 11 62 73 107 78 37 57 61 88 129 198 196 174 138 240 284 261 253 316 209 30 14 13 23 44 23 3 6 15 43 41 52 75 74 55 69 115 138
169 294 386 177 96 15 49 106 195 186 217 189 240 168 136 371 509 472 404 361 358 330 327 189 132 106 117 110 66 0 0 0 0 0 0 5 8 13 37 60 85 109 136
CIN
-211 -203 -191 -184 -177 -194 -206 -195 -150 -93 -79 -83 -45 -40 -44 -66 -72 -65 -53 -10 -1 0 0 -2 -1 0 -1 -5 -9 -2 -11 0 -1 0 0 0 -10 0 0 -38 0 0 0
-267 -316 -325 -260 -150 -181 -198 -179 -123 -100 -91 -90 -26 -3 -51 -70 -7 -32 -44 -19 -2 0 0 -1 -13 -2 0 0 -14 -38 0 0 0 0 0 0 -1 -3 -9 -8 0 0 0
-327 -325 -341 -406 -358 -282 -243 -211 -242 -167 -161 -123 -102 -64 -51 -53 -38 -16 0 -32 -8 0 0 0 -4 -4 -5 -25 -51 -47 -59 0 0 0 0 0 0 -109 -41 -69 -33 -8 0
-221 -234 -283 -440 -463 -303 -235 -215 -240 -79 0 0 0 -13 0 -13 -25 -14 -12 -7 0 0 0 -26 -8 -1 0 0 0 0 -36 -41 -9 0 -5 0 0 0 0 0 0 0 0
-152 -147 -194 -362 -419 -150 -184 -252 0 0 0 0 0 0 -18 -34 -64 -14 -6 -8 -7 -23 -61 -7 -10 0 0 0 0 0 -15 -24 -29 -35 -70 -84 -110 0 0 0 0 0 0
-112 -100 -170 -290 -328 -131 -143 -413 0 0 0 0 0 -16 -63 -60 -23 -39 -34 -35 -37 -21 -16 -19 -13 0 0 0 0 0 0 0 -53 -46 -53 -57 0 0 0 0 0 0 0
-122 -119 -140 -210 -276 -89 -134 -248 -259 0 0 0 0 -6 -27 -32 -38 -30 -77 -65 -44 -30 -55 -40 -41 -18 -45 0 0 0 0 0 0 0 0 0 0 -15 -17 0 0 -19 -4
-127 -125 -126 -153 -226 -111 -101 -108 -104 -137 -35 0 0 -70 -49 0 -83 -40 -62 -46 -13 0 0 -48 -35 -44 -63 -58 -29 -42 -35 0 0 0 -17 -23 -19 -28 -36 -29 -26 -32 -51
-120 -115 -116 -137 -182 -93 -61 -35 -29 -59 -83 -14 0 -41 -56 -43 -119 -65 -22 0 0 -4 0 -32 -39 -25 -31 -6 -10 0 0 0 0 0 0 0 0 -10 -47 -38 -35 -19 -4
-102 -107 -116 -124 -174 -141 -67 -35 -33 -18 -31 -53 -49 -37 -20 -22 -59 -39 -15 0 0 -12 0 -56 -85 -33 -41 0 -8 0 0 0 0 0 0 0 0 0 0 -16 -12 -7 -1
-106 -122 -122 -116 -148 -101 -56 -69 -68 -40 -33 -40 -28 -58 -40 -31 -80 0 0 -19 0 0 0 -29 -38 -43 0 -34 -15 0 0 0 -1 0 0 0 0 0 0 0 0 0 0
-115 -121 -123 -102 -81 -70 -79 -81 -97 -72 -62 -48 -36 -32 -41 -32 -33 -15 -4 -9 -41 -36 -30 -27 -27 -35 0 0 0 0 0 0 0 0 0 -1 -2 -1 0 0 0 0 0
-118 -110 -108 -84 -75 -87 -91 -73 -115 -94 -76 -45 -25 -19 -25 -40 -26 0 0 0 0 -35 -38 -18 -21 -2 0 0 0 0 0 0 0 -1 -1 -1 -2 -1 0 0 0 0 0
-88 -98 -108 -98 -103 -82 -83 -84 -109 -117 -73 -45 -45 -6 -43 -12 -17 -30 -32 -9 -16 -24 -5 -3 0 0 0 -1 0 0 0 0 -2 -1 -1 -1 -2 0 -2 -3 0 0 0
-98 -30 -32 -51 -106 -100 -83 -87 -56 -64 -50 -82 -49 -13 -14 -21 -28 -35 -40 -33 -20 -9 -12 0 0 0 0 0 0 0 0 0 0 -6 -3 -2 -2 -4 -10 -7 -9 0 -2
-70 -175 -27 -137 -68 -60 -57 -57 -110 -101 -145 -74 -34 -13 -6 -6 -19 -6 -14 -12 0 0 0 0 0 0 0 0 0 0 0 0 0 0 -13 -18 -11 -5 -6 -54 -57 -13 0
-106 -126 -157 -188 -128 -49 -46 -47 -26 -35 0 0 0 0 -1 -6 0 0 0 0 0 0 0 0 0 -6 -15 -20 -25 0 0 0 0 0 0 0 -24 -38 -24 -13 -41 -69 -18
-100 -189 -146 -183 -144 -67 -44 -68 -35 -14 -54 -77 0 0 0 0 0 0 0 0 0 0 -5 -4 -7 -20 -29 -33 -50 -64 -40 -34 -42 -15 0 0 0 0 -15 -20 -16 -27 -24
-81 -108 -139 -173 -115 -60 -17 -26 -18 -8 -20 -50 -50 0 0 0 0 0 0 0 -6 -18 -34 -30 -31 -26 -19 -26 -30 -39 -44 -36 -70 -74 -93 -63 -36 -2 0 0 0 -20 -19
-69 -94 -114 -113 -92 -104 -86 -50 -11 -10 -10 -27 -9 0 0 0 0 0 0 0 0 -4 -10 -33 -44 -44 -44 -41 -43 -48 -66 -56 -57 -72 -67 -50 -45 -35 -49 0 0 0 0
-103 -81 -120 -151 -80 -70 -30 -59 -28 -3 -16 -43 0 0 0 0 -1 -1 -1 0 0 0 -44 -37 -40 -63 -103 -76 -86 -77 -75 -62 -55 -62 -61 -55 -57 -54 -57 -38 -28 -1 -12
-91 -68 -68 -6 -24 -45 -35 -48 -13 -4 -5 -29 -34 -22 0 0 -27 -17 -26 -42 -51 -67 -48 -55 -65 -62 -60 -96 -140 -138 -121 -126 -93 -65 -81 -75 -63 -60 -55 -46 -30 -8 -3
-57 -34 -22 -60 -64 -62 -54 -41 -14 -42 -32 -21 -17 -28 -25 -54 -57 -62 -64 -50 -50 -57 -59 -80 -72 -47 -60 -101 -161 -164 -156 -109 -121 -122 -117 -75 -65 -58 -43 -37 -41 -39 -25
-95 -29 -15 -10 -10 -47 -51 -40 -20 -34 -21 -10 -10 -22 -67 -65 -75 -74 -50 -32 -31 -37 -69 -115 -160 -172 -146 -161 -197 -190 -170 -161 -157 -138 -120 -78 -45 -49 -61 -32 -38 -35 -33
-74 -60 -21 -6 -11 -40 -10 0 0 -1 -19 -38 -24 -17 -24 -32 -65 -81 -104 -74 -70 -88 -74 -68 -86 -164 -183 -137 -113 -83 -88 -174 -196 -170 -125 -110 -118 -88 -39 -49 -46 -47 -42
-50 -17 0 -2 -3 -6 -18 -1 0 -1 0 -13 -14 -36 -41 -8 -3 -8 -23 -43 -54 -56 -43 -69 -82 -86 -77 -66 -82 0 0 0 0 0 0 -91 -106 -129 -94 -66 -61 -55 -52
Wind_Speed
23 22 22 21 16 13 11 11 11 12 11 12 12 12 13 15 18 23 23 25 28 22 20 16 20 20 20 20 22 25 23 24 19 17 19 15 12 9 9 10 8 7 8
25 26 26 24 20 16 14 12 11 11 10 9 9 9 12 16 18 19 25 22 24 22 19 13 11 10 9 12 14 18 18 15 11 6 13 13 13 14 10 10 8 9 9
25 27 28 26 23 19 17 14 10 10 9 8 9 9 10 15 23 18 21 17 17 17 10 7 6 6 5 4 8 10 10 9 14 11 9 8 11 11 13 11 6 5 7
26 27 28 27 26 22 18 14 10 10 10 9 10 11 9 7 5 4 13 19 20 17 11 9 8 4 5 5 5 5 6 3 7 8 9 7 11 13 9 4 1 4 8
26 26 27 28 27 24 17 13 9 8 9 9 12 9 3 2 1 11 17 20 21 17 13 8 3 3 3 3 4 5 4 5 2 2 4 5 4 6 3 1 1 7 9
25 26 27 28 28 26 16 12 8 7 10 10 8 5 3 6 3 18 17 14 12 7 2 3 2 1 2 2 5 6 7 2 2 2 4 5 5 3 1 0 2 3 4
26 26 26 28 28 24 16 11 8 6 8 9 4 4 12 10 2 15 9 14 4 3 1 3 2 1 2 4 7 8 9 13 13 8 7 6 5 4 2 3 3 4 5
26 24 24 26 25 23 18 12 7 7 7 9 3 6 12 6 4 10 12 14 8 11 3 3 0 1 3 5 7 8 10 11 9 9 7 4 6 3 3 5 5 7 10
25 23 23 22 23 21 19 14 11 8 9 7 4 6 11 8 12 5 7 13 10 5 2 1 1 1 3 6 7 8 9 9 10 11 10 9 8 5 6 6 5 3 4
23 23 20 19 20 21 20 16 12 9 9 9 6 2 7 9 10 11 6 5 2 1 1 1 5 2 3 4 7 6 6 6 8 10 11 11 10 9 7 9 8 6 8
22 21 19 16 17 18 19 15 11 10 10 9 8 4 2 3 4 8 8 9 3 2 4 6 2 2 1 3 2 4 5 10 11 11 11 12 11 11 10 11 14 15 14
22 23 20 16 15 16 17 15 10 10 10 12 10 7 5 4 6 6 7 8 4 3 5 4 1 5 4 4 3 5 6 11 15 13 12 12 13 14 15 15 15 17 23
19 19 18 14 14 13 15 13 10 12 11 9 7 6 6 3 5 3 6 5 4 8 5 4 3 2 3 2 3 4 8 13 14 13 12 13 17 19 19 16 16 18 22
23 16 17 15 14 11 12 10 13 12 11 9 7 5 5 4 3 4 2 3 8 11 10 6 6 6 4 5 5 6 8 10 10 10 12 15 17 17 15 15 16 16 20
19 19 24 22 16 11 11 9 15 12 6 6 5 2 3 5 2 4 3 4 4 6 6 8 9 9 7 7 7 7 8 9 10 13 12 11 12 13 14 15 15 14 15
15 15 21 21 18 10 8 10 17 19 10 12 13 6 3 5 2 5 4 5 6 5 8 10 10 8 8 7 7 7 8 10 12 13 13 13 13 13 16 15 15 14 15
15 12 9 8 12 9 7 11 20 13 17 18 14 11 11 11 5 4 4 6 6 6 11 11 11 10 10 9 8 9 10 9 11 11 12 13 14 14 15 16 16 17 18
13 9 10 15 13 11 8 13 14 17 9 8 12 13 15 14 11 10 8 8 13 13 12 11 10 11 10 10 11 11 12 13 10 10 10 12 13 14 15 17 19 20 20
5 6 11 12 18 15 15 14 15 14 12 11 13 14 10 12 13 12 8 10 8 7 8 9 10 11 11 11 11 11 11 12 11 10 12 12 13 14 16 17 19 20 20
4 2 6 4 4 9 16 18 16 16 13 9 9 10 7 9 10 9 7 7 7 8 9 10 10 11 11 12 12 12 14 14 15 14 13 14 16 16 16 17 18 19 19
4 4 7 1 6 10 23 21 17 17 15 12 9 9 6 5 7 7 6 7 8 9 10 10 11 12 12 13 13 13 14 14 14 15 15 14 16 16 16 17 19 19 20
2 2 3 3 2 3 4 8 17 14 17 16 14 13 11 10 14 15 13 12 9 10 11 11 11 12 12 13 13 13 13 14 16 18 16 16 17 19 19 19 20 20 21
10 6 4 4 4 5 5 9 19 21 23 23 23 20 16 18 19 17 19 14 10 13 12 11 12 12 13 16 17 16 17 20 18 19 19 21 19 19 19 20 20 21 22
17 15 9 6 6 5 6 4 3 16 21 22 21 20 21 19 20 19 14 14 14 15 16 16 17 17 18 20 18 18 17 19 23 23 20 22 22 21 21 19 20 21 22
19 15 13 13 7 4 11 12 12 7 5 16 16 18 18 16 17 15 16 17 19 21 20 19 18 19 19 20 20 24 26 24 23 23 24 25 23 24 24 23 21 21 22
20 20 19 14 15 18 19 15 13 11 14 22 18 21 19 19 18 18 20 23 22 23 23 23 23 28 32 32 31 35 29 27 28 27 26 27 26 24 25 25 25 25 25
Wind_Direction
351 348 345 343 338 329 316 305 289 289 280 274 278 281 279 289 294 293 286 290 287 286 285 283 283 277 274 273 276 277 277 279 276 282 275 278 255 270 282 293 309 318 324
348 344 342 341 339 335 332 323 310 300 291 285 280 278 287 297 298 289 286 289 281 281 283 296 308 314 297 285 278 276 284 284 304 296 285 272 264 270 281 286 304 313 321
344 341 340 339 338 335 334 331 325 316 308 309 304 300 300 302 303 289 271 275 279 273 286 309 330 342 17 351 287 290 296 287 276 286 293 277 272 280 277 293 319 353 329
339 338 337 337 336 335 334 334 333 330 325 326 316 309 309 320 321 296 268 259 258 268 289 309 315 352 85 85 64 45 77 353 298 286 293 296 276 279 288 299 36 331 308
335 334 335 335 335 332 333 336 342 337 334 339 345 349 24 69 76 268 263 261 262 275 291 307 335 51 87 82 73 79 61 94 71 345 319 311 298 288 262 93 331 305 301
332 331 332 332 332 331 331 334 335 326 325 324 342 10 131 121 273 260 272 272 286 305 10 344 348 13 40 53 320 319 307 2 356 329 306 292 282 276 109 343 333 342 319
330 329 328 330 330 329 328 324 324 323 323 327 334 132 146 145 244 268 278 279 312 117 20 333 328 0 330 312 303 303 299 294 294 301 300 292 287 284 315 300 313 332 333
330 329 328 330 330 329 327 320 320 325 319 325 312 171 168 177 221 265 274 284 298 297 319 119 129 25 313 307 302 297 296 297 302 309 310 317 311 307 306 302 304 312 302
330 330 327 329 330 330 325 318 313 314 319 326 327 194 189 184 177 233 257 282 290 289 295 295 197 292 298 290 294 293 295 298 298 299 303 305 310 320 315 310 296 277 294
329 331 331 331 329 325 321 316 314 310 312 322 316 245 196 188 188 180 198 270 196 228 278 145 147 296 289 280 289 290 290 294 295 297 296 295 298 301 299 297 298 290 290
330 332 330 329 330 327 321 317 313 306 303 307 310 303 200 209 224 212 198 271 201 209 166 149 158 164 194 173 246 290 289 295 294 295 295 295 296 294 291 284 282 281 284
324 326 326 324 325 325 320 316 315 308 302 297 296 293 290 266 205 200 209 258 257 223 174 168 252 158 166 171 185 287 287 291 292 291 287 288 290 290 292 289 283 279 276
318 322 325 322 322 319 313 312 315 303 302 300 298 298 305 307 300 198 184 228 248 275 280 290 293 183 188 202 216 278 290 290 289 288 285 286 287 288 290 290 286 283 278
315 320 326 323 316 312 311 311 302 300 300 299 303 308 309 309 299 286 203 193 274 276 282 290 297 301 289 289 289 283 288 287 281 281 283 287 290 291 290 289 289 281 279
322 324 325 320 315 307 303 300 292 298 299 295 300 291 292 289 226 168 214 243 249 269 282 291 291 294 287 278 280 276 280 286 285 288 285 282 286 288 290 288 287 286 277
308 312 326 307 306 297 295 296 284 286 290 290 297 298 289 290 216 180 213 255 266 258 278 286 289 290 291 288 281 274 268 271 277 281 283 285 285 285 285 283 281 278 277
303 293 307 324 295 287 270 287 281 283 283 282 286 288 284 295 277 264 231 269 271 267 282 285 284 286 287 285 286 291 289 281 277 259 265 272 278 282 284 281 278 274 274
301 285 303 315 297 291 269 280 280 280 273 270 279 281 280 279 279 277 275 280 283 279 280 279 283 286 284 284 285 279 280 287 279 268 251 247 254 263 269 273 278 276 273
280 282 306 306 299 293 286 282 276 276 277 282 287 286 270 275 275 275 257 270 265 263 263 270 281 289 289 290 289 288 288 287 280 267 274 263 266 264 264 261 265 268 270
217 268 321 321 223 275 280 278 272 272 273 265 274 281 277 276 274 267 252 235 241 254 266 271 277 280 285 286 286 285 288 289 288 280 274 272 273 269 262 266 271 271 265
209 182 176 162 319 309 281 272 270 268 270 266 260 267 244 252 268 265 243 232 243 257 259 260 266 278 275 275 274 274 276 276 279 278 273 268 271 269 265 265 266 266 268
134 136 72 142 42 77 321 267 269 266 269 271 268 271 261 261 281 284 284 283 258 262 258 263 261 262 269 275 275 270 263 271 279 279 267 267 267 268 267 267 268 266 263
7 33 79 68 73 51 69 324 279 272 271 272 274 275 276 277 280 284 287 287 276 286 284 276 272 274 280 284 283 279 275 281 283 281 276 279 272 266 262 256 257 262 262
333 338 355 1 13 42 7 22 14 291 276 274 282 283 281 283 286 288 284 285 286 288 293 291 293 291 296 298 294 289 277 277 287 287 276 279 278 273 267 259 255 257 260
330 343 346 331 355 59 346 338 347 16 312 278 287 287 294 294 295 295 297 299 299 298 299 301 299 299 302 297 297 301 297 289 284 285 286 283 277 275 273 268 265 263 263
339 335 330 344 330 315 317 334 330 336 317 290 294 294 298 301 304 305 304 303 302 301 302 303 306 305 304 303 303 303 301 296 293 288 283 284 282 276 271 268 266 268 266